map of KEF home
KEF - Airport
Location
City:  Reykjavík, Iceland
Name:Keflavík
ICAO:BIKF
IATA:KEF

Details
Type:Airport (Aerodrome, Airfield)
Latitude:63°59'06"N (63.985000)
Longitude:22°36'20"W (-22.605555)
Elevation:171 ft (52 m)
Variation:14.01°W (WMM2015 magnetic declination)
0.27° annual change
Runways:2
Longest:10056 × 197 ft (3065 × 60 m), paved

Time
Time Zone:UTC+0
Local Time:

Weather
METAR:BIKF 260300Z 13026G38KT 9999 -RA FEW009 BKN011 BKN015 07/06 Q1016
TAF:BIKF 260100Z 2603/2703 16030G40KT 8000 DZRA BKN012 OVC020 TX07/2603Z TN06/2610Z
TEMPO 2603/2703 3000 RADZ BR BKN007 OVC010
TEMPO 2611/2620 15038G50KT
BECMG 2622/2624 15020G30KT

Related Locations
Nearby:
Farthest:NZTB: 11672 mi / 18784 km
Terra Nova Bay [Mario Zucchelli Station], AQ

Find:

   beyond  
but within

Other Information
Maps:
NOTAMs:
Links:
Sources:

  
flag of Iceland
flag of Reykjavík
  

Sectional Chart

Flight Planning
at skyvector.com

Satellite Image

Google Maps Satellite view

 

Copyright © 2004-2018 Karl L. Swartz. All rights reserved.
The Great Circle Mapper name and logo are trademarks of the Great Circle Mapper.
All other trademarks mentioned herein belong to their respective owners.
Please see credits for attibutions and further copyright information.

  Follow gcmap on Facebook Follow gcmap on Twitter Follow gcmap on Google+ GCmap on LinkedIn

hCard Microformat

Geo Microformat